User: anonymous   Login
Location: Gold Fund Mine
(38.3819°N, 119.0996°W)
Time: 02:01:42
(UTC+00:00)
Language:

Cosmos 1459 Rocket - Orbit

View from above orbital plane
View from above orbital plane
View from above satellite
View from above satellite

Ground track
Ground track

The orbit data is extracted from the following two-line orbital elements,

1 14059U 83042B   20329.41908260  .00000058  00000-0  41577-4 0  9993
2 14059  82.9739 209.4138 0042408 340.1569  19.7937 13.78705606888847
Epoch (UTC): 24 November 2020 10:03:28
Eccentricity: 0.0042408
inclination: 82.9739°
perigee height: 937 km
apogee height: 999 km
right ascension of ascending node: 209.4138°
argument of perigee: 340.1569°
revolutions per day: 13.78705606
mean anomaly at epoch: 19.7937°
orbit number at epoch: 88884

The dashed part of the orbit path shows where the satellite is in the earth's shadow,  

DLR